OPS 1117 (TRANSIT 12)

导读

OPS 1117又名TRANSIT 12,是美国研发发射的"子午仪"系列导航卫星,于1966年3月26日发射入轨。作为全球首个卫星导航系统"子午仪"的组网卫星,它依托多普勒测频原理,为美国海军潜艇、海面舰船提供二维导航定位服务,也支持民用大地测量与海洋勘探作业。该卫星采用重力梯度稳定,运行在近极地近圆轨道,是卫星导航早期探索的重要实践,后续该系统被GPS取代。

基本信息
目录编号:
2119
目录名称:
OPS 1117 (TRANSIT 12)
国际标识:
1966-024A
轨道中心:
EARTH
卫星名称:
OPS 1117 (TRANSIT 12)
卫星全名:
--
卫星状态:
在轨 (已飞行22025 天)
发射日期:
1966-03-26 UTC
国别 :
美国 (US)
星等 :
--
轨道信息
数据来源 国际轨道数据 AOE轨道数据
星历时间 2026-07-14T12:30:24+0800
6小时前
查看轨道信息
2026-07-09T00:00:00+0800
5天前
查看轨道信息
半长轴 7358.313km 7358.314km
偏心率 0.0145235 0.0145955
轨道倾角 89.603° 89.605°
近地点辐角 325.565° 342.344°
升交点赤经 87.343° 87.573°
平近点角 33.617° 55.667°
近地点 873.307km 872.778km
远地点 1087.045km 1087.576km
周期 104.695分钟 104.695分钟
每日圈数 13.754204 13.754201
详细信息
使用方式:
暂无
2D轨道图
3D轨道图
轨道高度分析图
轨道倾角分析图
轨道综合分析图
查看轨道综合分析图